This demonstration page uses our WeatherBlox Daily Observations layout. Learn more.

Left ArrowRight Arrow

Hourly Observations for December 2, 2019

Temp ( °F °C ) Dew Point ( °F °C ) Humidity (%) Winds ( mph kmh ) Pressure ( in mb ) Visibility ( mi km ) Precip ( " mm )
12:51 am 00:51 Clear 44 6.7 36 2.2 73 73 ESE 9 15 30.18 1022 10 16 N/A
1:51 am 01:51 Clear 44 6.7 34 1.1 68 68 ESE 8 13 30.18 1022 10 16 N/A
2:51 am 02:51 Clear 44 6.7 33 0.6 65 65 ESE 12 19 30.19 1022 10 16 N/A
3:51 am 03:51 Clear 43 6.1 32 undefined 65 65 ESE 10 17 30.19 1022 10 16 N/A
4:51 am 04:51 Clear 43 6.1 30 -1.1 60 60 ESE 14 22 30.19 1022 10 16 N/A
5:51 am 05:51 Clear 42 5.6 30 -1.1 62 62 ESE 13 20 30.20 1023 10 16 N/A
6:51 am 06:51 Clear 41 5 30 -1.1 65 65 ESE 9 15 30.22 1023 10 16 N/A
7:51 am 07:51 Sunny 43 6.1 30 -1.1 60 60 ESE 12 19 30.22 1023 10 16 N/A
8:51 am 08:51 Sunny 47 8.3 30 -1.1 52 52 ESE 12 19 30.22 1023 10 16 N/A
9:51 am 09:51 Sunny 51 10.6 31 -0.6 46 46 ESE 12 19 30.21 1023 10 16 N/A
10:51 am 10:51 Sunny 53 11.7 35 1.7 51 51 SSE 7 11 30.20 1023 10 16 N/A
11:51 am 11:51 Sunny 56 13.3 35 1.7 46 46 SE 7 11 30.17 1022 10 16 N/A
12:51 pm 12:51 Sunny 58 14.4 34 1.1 41 41 S 7 11 30.14 1021 10 16 N/A
1:51 pm 13:51 Sunny 60 15.6 33 0.6 36 36 ESE 3 6 30.10 1019 10 16 N/A
2:51 pm 14:51 Sunny 61 16.1 34 1.1 36 36 N N/A 30.07 1018 10 16 N/A
3:51 pm 15:51 Sunny 61 16.1 36 2.2 39 39 S 5 7 30.07 1018 10 16 N/A
4:51 pm 16:51 Sunny 59 15 38 3.3 46 46 S 3 6 30.08 1019 10 16 N/A
5:51 pm 17:51 Clear 54 12.2 40 4.4 59 59 N N/A 30.09 1019 10 16 N/A
6:51 pm 18:51 Clear 49 9.4 42 5.6 77 77 NNE 6 9 30.13 1020 10 16 N/A
7:51 pm 19:51 Clear 49 9.4 39 3.9 69 69 NE 8 13 30.13 1020 10 16 N/A
8:51 pm 20:51 Clear 45 7.2 39 3.9 80 80 SE 5 7 30.13 1020 10 16 N/A
9:51 pm 21:51 Clear 43 6.1 39 3.9 86 86 N N/A 30.14 1021 10 16 N/A
10:51 pm 22:51 Clear 42 5.6 38 3.3 85 85 N N/A 30.15 1021 10 16 N/A
11:51 pm 23:51 Clear 41 5 37 2.8 86 86 N N/A 30.13 1020 10 16 N/A

Powered by AerisWeather